User: anonymous   Login
Location: Cruquius
(52.3348°N, 4.6319°E)
Time: 07:48:32
(UTC+00:00)
Language:

Meteor 1-12 Rocket - Orbit

View from above orbital plane
View from above orbital plane
View from above satellite
View from above satellite

Ground track
Ground track

The orbit data is extracted from the following two-line orbital elements,

1 06080U 72049B   21216.78767736  .00000058  00000-0  30186-4 0  9994
2 06080  81.2420 338.4361 0048538 341.6539  18.2874 14.00933061508303
Epoch (UTC): 04 August 2021 18:54:15
Eccentricity: 0.0048538
inclination: 81.2420°
perigee height: 855 km
apogee height: 926 km
right ascension of ascending node: 338.4361°
argument of perigee: 341.6539°
revolutions per day: 14.00933061
mean anomaly at epoch: 18.2874°
orbit number at epoch: 50830

The dashed part of the orbit path shows where the satellite is in the earth's shadow,  

DLR